Date String (YYYY-MM-DD hh:mm:ss) UTC,Instrument flags,Ambient pressure (hPa),Sample flow (lpm),Bypass flow (lpm),Sample temperature (°C),Ambient temperature (°C),ASC tube jacket temperature (°C),LED temperature (°C),Box temperature (°C),Sample RH (%),Span deviation,Mass concentration (μg/m³),Mass concentration (μg/m³),Mass concentration (μg/m³)
DateTimeUTC,F1_M11,P_M11,Q1_M11,Q2_M11,T1_M11,T2_M11,T3_M11,T4_M11,T5_M11,U1_M11,ZSPAN_M11,X0_M11,X2_M11,X1_M11
2022-03-24 10:00:00,,0824.2,5.00,0.00,21.8,20.9,00.0,30.8,23.5,09.8,0000.0,0006.11,0002.24,0001.23
2022-03-24 10:01:00,,0824.3,5.01,0.00,21.8,21.6,00.0,30.9,23.7,09.8,0000.0,0006.04,0002.22,0001.23
2022-03-24 10:02:00,,0824.2,5.00,0.00,22.0,22.5,00.0,30.9,24.0,09.8,0000.0,0006.07,0002.25,0001.21
2022-03-24 10:03:00,,0824.2,5.01,0.00,22.1,23.2,00.0,31.0,24.2,09.8,0000.0,0007.37,0002.26,0001.21
2022-03-24 10:04:00,,0824.2,4.99,0.00,22.2,23.1,00.0,31.0,24.3,09.7,0000.0,0007.68,0002.27,0001.21
2022-03-24 10:05:00,,0824.2,5.00,0.00,22.2,22.8,00.0,31.0,24.2,09.7,0000.0,0007.82,0002.23,0001.22
2022-03-24 10:06:00,,0824.2,4.99,0.00,22.2,22.4,00.0,31.0,24.1,09.8,0000.0,0007.77,0002.20,0001.21
2022-03-24 10:07:00,,0824.1,5.02,0.00,22.2,22.2,00.0,31.0,24.1,09.8,0000.0,0007.81,0002.23,0001.19
2022-03-24 10:08:00,,0824.1,4.98,0.00,22.2,21.9,00.0,31.1,24.0,09.7,0000.0,0007.75,0002.19,0001.18
2022-03-24 10:09:00,,0824.1,5.00,0.00,22.2,21.7,00.0,31.1,23.9,09.8,0000.0,0007.23,0002.17,0001.17
2022-03-24 10:10:00,,0824.1,5.00,0.00,22.2,21.6,00.0,31.1,23.9,09.8,0000.0,0006.64,0002.07,0001.16
2022-03-24 10:11:00,,0824.1,5.00,0.00,22.1,21.5,00.0,31.1,23.8,09.8,0000.0,0006.58,0002.06,0001.17
2022-03-24 10:12:00,,0824.1,5.00,0.00,22.1,21.4,00.0,31.1,23.8,09.8,0000.0,0006.88,0002.09,0001.16
2022-03-24 10:13:00,,0824.1,4.99,0.00,22.1,21.4,00.0,31.1,23.8,09.8,0000.0,0006.79,0002.04,0001.16
2022-03-24 10:14:00,,0824.1,4.99,0.00,22.1,21.3,00.0,31.1,23.8,09.9,0000.0,0005.30,0001.95,0001.13
2022-03-24 10:15:00,,0824.0,5.00,0.00,22.1,21.2,00.0,31.1,23.8,09.8,0000.0,0004.63,0001.89,0001.12
2022-03-24 10:16:00,,0824.1,5.00,0.00,22.1,21.2,00.0,31.1,23.8,09.8,0000.0,0004.15,0001.89,0001.11
2022-03-24 10:17:00,,0824.1,5.01,0.00,22.0,21.1,00.0,31.1,23.7,09.9,0000.0,0004.09,0001.88,0001.10
2022-03-24 10:18:00,,0824.1,5.01,0.00,22.0,21.1,00.0,31.1,23.7,09.8,0000.0,0003.97,0001.82,0001.09
2022-03-24 10:19:00,,0824.0,5.00,0.00,22.0,21.1,00.0,31.1,23.7,09.8,0000.0,0003.97,0001.83,0001.09
2022-03-24 10:20:00,,0824.1,4.99,0.00,22.0,21.1,00.0,31.0,23.7,09.9,0000.0,0003.96,0001.84,0001.08
2022-03-24 10:21:00,,0824.0,4.99,0.00,22.0,21.0,00.0,31.0,23.6,09.9,0000.0,0004.02,0001.86,0001.07
2022-03-24 10:22:00,,0824.0,5.01,0.00,21.9,21.0,00.0,31.0,23.6,09.9,0000.0,0003.85,0001.91,0001.07
2022-03-24 10:23:00,,0824.0,5.00,0.00,21.9,21.0,00.0,31.0,23.6,09.8,0000.0,0003.46,0001.86,0001.07
2022-03-24 10:24:00,,0824.0,5.00,0.00,21.9,21.0,00.0,31.0,23.6,09.8,0000.0,0003.30,0001.81,0001.07
2022-03-24 10:25:00,,0824.0,5.00,0.00,21.9,21.0,00.0,31.0,23.6,09.8,0000.0,0003.29,0001.81,0001.07
2022-03-24 10:26:00,,0824.0,4.99,0.00,21.9,21.0,00.0,31.0,23.6,09.8,0000.0,0003.26,0001.81,0001.07
2022-03-24 10:27:00,,0823.9,5.00,0.00,21.9,21.0,00.0,31.0,23.6,09.8,0000.0,0003.45,0001.86,0001.08
2022-03-24 10:28:00,,0823.9,5.00,0.00,21.9,21.0,00.0,31.0,23.6,09.8,0000.0,0003.63,0001.91,0001.08
2022-03-24 10:29:00,,0823.9,5.00,0.00,21.9,21.0,00.0,31.0,23.6,09.8,0000.0,0003.51,0001.87,0001.08
2022-03-24 10:30:00,,0823.9,5.00,0.00,21.9,21.0,00.0,30.9,23.6,09.8,0000.0,0003.39,0001.83,0001.07
2022-03-24 10:31:00,,0823.9,5.01,0.00,21.9,21.0,00.0,30.9,23.6,09.8,0000.0,0003.39,0001.83,0001.07
2022-03-24 10:32:00,,0823.9,5.00,0.00,21.9,21.0,00.0,30.9,23.6,09.8,0000.0,0003.47,0001.87,0001.07
2022-03-24 10:33:00,,0823.9,5.00,0.00,21.9,21.0,00.0,30.9,23.6,09.8,0000.0,0003.41,0001.81,0001.07
2022-03-24 10:34:00,,0824.0,5.01,0.00,21.9,21.1,00.0,30.9,23.6,09.9,0000.0,0003.61,0001.81,0001.06
2022-03-24 10:35:00,,0824.0,4.99,0.00,21.9,21.1,00.0,30.9,23.7,09.9,0000.0,0003.72,0001.84,0001.04
2022-03-24 10:36:00,,0823.9,5.00,0.00,21.9,21.1,00.0,30.9,23.6,09.9,0000.0,0003.74,0001.86,0001.04
2022-03-24 10:37:00,,0823.9,5.00,0.00,21.9,21.0,00.0,30.9,23.6,09.9,0000.0,0003.79,0001.86,0001.04
2022-03-24 10:38:00,,0823.9,5.00,0.00,21.9,21.2,00.0,30.9,23.6,09.9,0000.0,0003.82,0001.83,0001.02
2022-03-24 10:39:00,,0823.9,5.01,0.00,22.0,21.8,00.0,31.0,23.9,09.7,0000.0,0003.81,0001.82,0001.02
2022-03-24 10:40:00,,0824.0,5.00,0.00,22.1,22.7,00.0,31.0,24.1,09.7,0000.0,0003.82,0001.83,0001.02
2022-03-24 10:41:00,,0823.9,4.99,0.00,22.3,23.4,00.0,31.1,24.4,09.7,0000.0,0003.91,0001.85,0001.03
2022-03-24 10:42:00,,0823.9,5.01,0.00,22.4,23.2,00.0,31.1,24.4,09.7,0000.0,0004.04,0001.82,0001.02
2022-03-24 10:43:00,,0823.9,5.00,0.00,22.4,22.8,00.0,31.1,24.3,09.8,0000.0,0005.35,0001.77,0001.02
2022-03-24 10:44:00,,0823.8,4.99,0.00,22.3,22.5,00.0,31.1,24.2,09.7,0000.0,0005.20,0001.74,0001.02
2022-03-24 10:45:00,,0823.9,5.00,0.00,22.3,22.2,00.0,31.1,24.1,09.7,0000.0,0005.34,0001.78,0001.03
2022-03-24 10:46:00,,0823.9,5.00,0.00,22.3,22.0,00.0,31.2,24.1,09.7,0000.0,0006.33,0001.75,0001.04
2022-03-24 10:47:00,,0823.9,5.00,0.00,22.3,21.8,00.0,31.2,24.1,09.7,0000.0,0006.93,0001.74,0001.03
2022-03-24 10:48:00,,0823.9,5.00,0.00,22.2,21.6,00.0,31.2,24.0,09.7,0000.0,0007.39,0001.72,0001.03
2022-03-24 10:49:00,,0823.9,4.99,0.00,22.2,21.5,00.0,31.2,23.9,09.7,0000.0,0007.27,0001.70,0001.04
2022-03-24 10:50:00,,0823.8,5.00,0.00,22.2,21.4,00.0,31.2,23.9,09.7,0000.0,0007.15,0001.68,0001.06
2022-03-24 10:51:00,,0823.8,5.00,0.00,22.2,21.3,00.0,31.2,23.9,09.5,0000.0,0007.19,0001.69,0001.06
2022-03-24 10:52:00,,0823.8,4.99,0.00,22.2,21.3,00.0,31.2,23.9,09.6,0000.0,0007.18,0001.69,0001.06
2022-03-24 10:53:00,,0823.8,5.00,0.00,22.1,21.3,00.0,31.2,23.9,09.7,0000.0,0007.09,0001.74,0001.08
2022-03-24 10:54:00,,0823.8,5.00,0.00,22.1,21.3,00.0,31.1,23.9,09.7,0000.0,0005.83,0001.78,0001.09
2022-03-24 10:55:00,,0823.8,5.01,0.00,22.1,21.3,00.0,31.1,24.0,09.8,0000.0,0005.93,0001.81,0001.09
2022-03-24 10:56:00,,0823.8,5.00,0.00,22.2,21.4,00.0,31.1,24.0,09.8,0000.0,0005.97,0001.83,0001.10
2022-03-24 10:57:00,,0823.8,4.99,0.00,22.2,21.4,00.0,31.1,24.0,09.8,0000.0,0005.71,0001.87,0001.11
2022-03-24 10:58:00,,0823.8,5.00,0.00,22.2,21.4,00.0,31.1,24.0,09.7,0000.0,0005.36,0001.91,0001.13
2022-03-24 10:59:00,,0823.8,5.00,0.00,22.2,21.5,00.0,31.1,24.1,09.6,0000.0,0004.69,0001.95,0001.15
